Weather History for Concord, NC

Change the Weather History Date:

Thursday, November 7, 2013

  Actual Average (KCLT) Record (KCLT)
Temperature  
Mean Temperature 58 °F 54 °F  
Max Temperature 71 °F 65 °F 78 °F (1888)
Min Temperature 44 °F 42 °F 26 °F (1998)
Degree Days  
Heating Degree Days 8 12  
Month to date heating degree days 76  
Since 1 July heating degree days 282  
Cooling Degree Days 0 0  
Month to date cooling degree days 0  
Year to date cooling degree days 1513  
Growing Degree Days 8 (Base 50)    
Moisture  
Dew Point 43 °F    
Average Humidity 76    
Maximum Humidity 100    
Minimum Humidity 37    
Precipitation  
Precipitation 0.00 in 0.10 in 1.71 in (1935)
Month to date precipitation 0.70  
Year to date precipitation 35.94  
Snow  
Snow 0.00 in 0.00 in 0.00 in ()
Month to date snowfall 0.0  
Since 1 July snowfall 0.0  
Since 1 September snowfall 0.0  
Snow Depth -    
Sea Level Pressure  
Sea Level Pressure 30.10 in    
Wind  
Wind Speed 3 mph (NNW)    
Max Wind Speed 15 mph    
Max Gust Speed 18 mph    
Visibility 8 miles    
Events      
T = Trace of Precipitation, MM = Missing Value Source: NWS Daily Summary

Daily Weather History Graph

Daily Weather History Graph

Search for Another Location

Airport:

Trip Planner

Search our weather history database for the weather conditions in past years. The results will help you decide how hot, cold, wet, or windy it might be!

Date:

Astronomy

Nov. 07, 2013 Rise Set
Actual Time 6:50 AM EST 5:22 PM EST
Civil Twilight 6:23 AM EST 5:48 PM EST
Nautical Twilight 5:53 AM EST 6:19 PM EST
Astronomical Twilight 5:23 AM EST 6:49 PM EST
Moon 10:55 AM EST (11/7) 9:33 PM EST (11/7)
Length of Visible Light 11h 25m
Length of Day
10h 31m
Waxing Crescent, 22% of the Moon is Illuminated
Nov 7
Waxing Crescent
Nov 10
First Quarter
Nov 17
Full
Nov 25
Last Quarter
Dec 2
New

Hourly Weather History & Observations

Time (EST) Temp. Windchill Dew Point Humidity Pressure Visibility Wind Dir Wind Speed Gust Speed Precip Events Conditions
12:15 AM 50.0 °F - 48.2 °F 94% 30.16 in 7.0 mi Calm Calm - N/A   Clear
12:35 AM 50.0 °F - 48.2 °F 94% 30.15 in 7.0 mi Calm Calm - N/A   Clear
12:55 AM 50.0 °F - 46.4 °F 87% 30.15 in 10.0 mi Calm Calm - N/A   Clear
1:15 AM 50.0 °F - 48.2 °F 94% 30.14 in 10.0 mi Calm Calm - N/A   Clear
1:35 AM 48.2 °F - 46.4 °F 93% 30.14 in 10.0 mi Calm Calm - N/A   Clear
1:55 AM 50.0 °F - 48.2 °F 94% 30.13 in 10.0 mi Calm Calm - N/A   Mostly Cloudy
2:15 AM 51.8 °F - 50.0 °F 94% 30.13 in 10.0 mi Calm Calm - N/A   Overcast
2:55 AM 51.8 °F - 50.0 °F 94% 30.11 in 10.0 mi Calm Calm - N/A   Overcast
3:15 AM 50.0 °F - 50.0 °F 100% 30.10 in 7.0 mi Calm Calm - N/A   Scattered Clouds
3:35 AM 50.0 °F - 48.2 °F 94% 30.09 in 3.0 mi Calm Calm - N/A   Mist
3:55 AM 50.0 °F - 48.2 °F 94% 30.08 in 5.0 mi Calm Calm - N/A   Clear
4:15 AM 46.4 °F - 46.4 °F 100% 30.08 in 1.2 mi Calm Calm - N/A   Mist
4:35 AM 48.2 °F - 46.4 °F 93% 30.07 in 5.0 mi Calm Calm - N/A   Clear
4:55 AM 46.4 °F - 46.4 °F 100% 30.06 in 4.0 mi Calm Calm - N/A   Clear
5:15 AM 46.4 °F - 46.4 °F 100% 30.06 in 4.0 mi Calm Calm - N/A   Clear
5:35 AM 46.4 °F - 46.4 °F 100% 30.06 in 7.0 mi Calm Calm - N/A   Clear
5:55 AM 46.4 °F - 44.6 °F 93% 30.05 in 2.5 mi Calm Calm - N/A   Mist
6:15 AM 44.6 °F - 44.6 °F 100% 30.06 in 5.0 mi Calm Calm - N/A   Clear
6:35 AM 46.4 °F - 44.6 °F 93% 30.06 in 5.0 mi Calm Calm - N/A   Scattered Clouds
6:55 AM 46.4 °F - 46.4 °F 100% 30.08 in 10.0 mi Calm Calm - N/A   Clear
7:53 AM 50.0 °F - 48.2 °F 94% 30.07 in 7.0 mi Calm Calm - N/A   Mostly Cloudy
8:53 AM 57.2 °F - 53.6 °F 88% 30.07 in 7.0 mi Calm Calm - N/A   Mostly Cloudy
9:51 AM 57.2 °F - 53.6 °F 88% 30.07 in 10.0 mi Calm Calm - N/A   Mostly Cloudy
10:55 AM 60.8 °F - 55.4 °F 82% 30.04 in 7.0 mi SSW 4.6 mph - N/A   Mostly Cloudy
11:55 AM 64.4 °F - 57.2 °F 77% 30.03 in 7.0 mi West 5.8 mph - N/A   Overcast
12:55 PM 66.2 °F - 57.2 °F 73% 30.01 in 7.0 mi WSW 4.6 mph - N/A   Mostly Cloudy
2:50 PM 71.6 °F - 51.8 °F 50% 30.00 in 10.0 mi NNW 12.7 mph - N/A   Scattered Clouds
3:55 PM 71.6 °F - 48.2 °F 43% 30.00 in 10.0 mi NNW 12.7 mph 17.3 mph N/A   Scattered Clouds
4:55 PM 64.4 °F - 37.4 °F 37% 30.04 in 10.0 mi NW 10.4 mph 18.4 mph N/A   Scattered Clouds
5:55 PM 57.2 °F - 32.0 °F 38% 30.09 in 10.0 mi NW 9.2 mph 18.4 mph N/A   Clear
6:50 PM 53.6 °F - 32.0 °F 44% 30.13 in 10.0 mi NNW 9.2 mph - N/A   Clear
7:46 PM 51.8 °F - 32.0 °F 47% 30.15 in 10.0 mi North 10.4 mph - N/A   Clear
8:15 PM 50.0 °F - 32.0 °F 50% 30.16 in 10.0 mi NNW 15.0 mph - N/A   Clear
8:35 PM 50.0 °F - 32.0 °F 50% 30.16 in 10.0 mi NNW 11.5 mph - N/A   Clear
8:55 PM 48.2 °F - 32.0 °F 54% 30.16 in 10.0 mi North 9.2 mph - N/A   Clear
9:15 PM 48.2 °F - 32.0 °F 54% 30.16 in 10.0 mi North 10.4 mph - N/A   Clear
9:35 PM 46.4 °F 42.4 °F 32.0 °F 57% 30.16 in 10.0 mi NNW 8.1 mph - N/A   Clear
9:55 PM 46.4 °F 42.4 °F 32.0 °F 57% 30.16 in 10.0 mi North 8.1 mph - N/A   Clear
10:15 PM 44.6 °F 39.7 °F 32.0 °F 61% 30.16 in 10.0 mi North 9.2 mph - N/A   Clear
10:35 PM 44.6 °F 40.2 °F 32.0 °F 61% 30.16 in 10.0 mi North 8.1 mph - N/A   Clear
10:55 PM 44.6 °F 39.7 °F 32.0 °F 61% 30.16 in 10.0 mi North 9.2 mph - N/A   Clear
11:15 PM 44.6 °F 38.1 °F 32.0 °F 61% 30.16 in 10.0 mi North 13.8 mph - N/A   Clear
11:35 PM 46.4 °F 41.5 °F 32.0 °F 57% 30.17 in 10.0 mi North 10.4 mph - N/A   Clear
11:55 PM 46.4 °F 41.5 °F 32.0 °F 57% 30.18 in 10.0 mi North 10.4 mph - N/A   Clear